Regional Weather Roundup
Issued by NWS

Home | Current Version | Previous Version | Text Only | Print | Product List | Glossary Off
Versions: 1 2 3 4 5 6 7 8 9 10 11 12 13 14 15 16 17 18 19 20 21 22 23 24 25 26 27 28 29 30 31 32 33 34 35 36 37 38 39 40 41 42 43 44 45 46 47 48 49 50

000
ASUS44 KMEG 231100
RWRTN
TENNESSEE HOURLY STATE WEATHER ROUNDUP
NATIONAL WEATHER SERVICE MEMPHIS TN
600 AM CDT THU MAR 23 2017

TNZ002-004-019-021-049-052-054-088>092-231200-
WEST TENNESSEE

CITY           SKY/WX    TMP DP  RH WIND       PRES   REMARKS
MEMPHIS INTL   MOCLDY    51  24  34 E7        30.26R
NWS MEMPHIS      N/A     48 N/A N/A MISG        N/A
JACKSON        CLOUDY    45  25  45 E6        30.26S
DYERSBURG      MOCLDY    46  29  51 CALM      30.29R
PARIS          PTCLDY    37  23  56 E8        30.27F WCI  31
$$

TNZ008-025-027-028-033-062-065-066-231200-
NORTH MIDDLE TENNESSEE

CITY           SKY/WX    TMP DP  RH WIND       PRES   REMARKS
NASHVILLE      CLEAR     39  26  59 NE6       30.32R WCI  35
CLARKSVILLE    CLEAR     35  23  61 E8        30.31S WCI  29
SMYRNA         CLEAR     37  27  67 CALM      30.33R
CROSSVILLE     CLEAR     38  20  48 E5        30.31R WCI  34
$$

TNZ061-075-076-078-094-096-097-231200-
SOUTH MIDDLE TENNESSEE

CITY           SKY/WX    TMP DP  RH WIND       PRES   REMARKS
TULLAHOMA      CLEAR     39  23  52 CALM      30.29R
WINCHESTER     CLEAR     48  27  43 SE9       30.29R
COLUMBIA       MOCLDY    43  27  52 E3        30.28R
SHELBYVILLE    CLEAR     37  34  87 CALM      30.30S
$$

TNZ017-018-042-046-047-231200-
NORTHEAST TENNESSEE

CITY           SKY/WX    TMP DP  RH WIND       PRES   REMARKS
TRI CITIES     CLEAR     32  19  58 CALM      30.39R
$$

TNZ012-013-036-069-073-074-231200-
CENTRAL EAST TENNESSEE

CITY           SKY/WX    TMP DP  RH WIND       PRES   REMARKS
KNOXVILLE      PTCLDY    40  21  46 N3        30.33R
OAK RIDGE      CLEAR     39  22  50 CALM      30.36R
GATLINBURG     CLEAR     30  27  86 CALM      30.34R
$$

TNZ083-085-099-231200-
SOUTHEAST TENNESSEE

CITY           SKY/WX    TMP DP  RH WIND       PRES   REMARKS
CHATTANOOGA    PTCLDY    41  30  65 CALM      30.34R
$$

SKY/WX REPORTED AS FAIR MEANS FEW OR NO CLOUDS BELOW
12 THOUSAND FEET.




USA.gov is the U.S. government's official web portal to all federal, state and local government web resources and services.